STARLINK-34337, 64223

Orbit data source: Space-Track

STARLINK-34337, 64223 is a payload satellite owned by SpaceX/Seattle (US) in LEO that was launched on Thu, 05 Jun 2025 UTC via an FALCON 9 launch vehicle from the Air Force Western Test Range (AFWTR). Payload-class satellites include a variety of spacecraft equipped with specific instruments for various scientific and technological missions. These include communications satellites like Starlink; space stations such as the ISS; scientific satellites like the Hubble; Earth observation satellites from companies like Planet Labs, Umbra, and HawkEye 360; GPS; miniature CubeSats for education and research; and military/defense satellites.

Loading next visibility...
Identifier
64223, 2025-117W
Orbit
LEO
Last TLE update
3 hours ago
Origin
Manufacturer
SpaceX/Seattle
Mission
Operational spacecraft
Bus & Motor
STARLINK V2MO, Unknown motor
Mass
575 kg wet, ~530 kg dry
Launch date (UTC)
2025-06-05 (2 weeks ago)
Launch vehicle
FALCON 9
Launch site
Air Force Western Test Range (AFWTR)
Object type
Payload
Rocket body
Debris
Shape & HBR
Unknown
Radar Cross Section
Large (>1 m²)

Expand to show TLE details & history

TLE from 3 hours ago
0 STARLINK-34337
1 64223U 25117W   25170.16670139 -.01567109  00000-0 -15535-1 0  9992
2 64223  53.1601 189.2056 0001126  92.5289 169.6705 15.68077535  3061
Epoch: 2025-06-19T04:00Z
TLE epoch observation values (Epoch: 2025-06-19T04:00:03Z)
Latitude
-52.617°
Longitude
118.71837°
Altitude
383.407 km
Speed
7.679 km/s
True Right ascension
05h 45m 28s
True Declination
-52° 26' 30"
Sunlit
Object was in daylight at epoch
Visualization orbit readout
Latitude
-22.20595°
Longitude
-156.83773°
Altitude
372.407 km
Speed
7.686 km/s
Apparent Right ascension
09h 10m 02s
Apparent Declination
-37° 08' 58"
Sunlit
Object is in daylight
Visualization observer readout
Local Sidereal Time
18:12:05
Azimuth
260.016° W
Elevation
-55.447°
Doppler factor
1
Orbital elements
Apogee altitude
365.422 km
Perigee altitude
363.904 km
Semi-major axis
6,742.8 km
Eccentricity
0.00011
Inclination
53.1601°
RAAN
189.2056°
Arg. of periapsis
92.5289°
True anomaly
Unknown
Mean anomaly
169.6705°
Eccentric anomaly
Unknown
Mean motion
3.91997 °/min
Orbital period
91.84 mins
BSTAR
-0.015535
Loading maneuver chart data...
Loading SW <> Apogee altitude chart data...
Loading historical data...
Loading historical data...
Loading historical data...
Loading historical data...
Loading historical data...
Loading historical data...
Loading historical data...

STARLINK-34337 Visibility forecast

Observer location: undefined°, undefined°

Span
Click to sort rows by Start time (UTC) header in descending order
Start Az.
Max El. time (UTC)
Max El. Az.
Max El.
End time (UTC)
End Az.
4 mins2025-06-19 11:03:27.354Z310.986° NW2025-06-19 11:04:27.354Z320.241° NNW44.855°2025-06-19 11:07:27.354Z130.594° SE
4 mins2025-06-20 03:34:27.354Z199.049° SSW2025-06-20 03:35:27.354Z168.395° S34.174°2025-06-20 03:38:27.354Z62.432° ENE
|